Location: Newark
(49.9819°N, 3.0344°E)
Time: 06:30:00
(UTC+00:00)

ISS - Pass Details

Date: 30 January 2020
Orbit: 415 x 422 km, 51.6° (Epoch: 22 February)

Event Time Altitude Azimuth Distance (km) Brightness Sun altitude
Rises 19:02:05 0° 284° (WNW) 2,381 1.4 -23.2°
Reaches altitude 10° 19:04:11 10° 285° (WNW) 1,513 0.1 -23.5°
Enters shadow 19:06:32 41° 293° (WNW) 629 -2.5 -23.9°
